Theta_e
292 292 293 293 293 293 293 293 293 293 292 292 292 292 293 293 293 293 293 294 294 294 294 294 295 295 295 295 295 295 295 295 295 295 295 294 294 294 294 294 293 293 293 292 292 291 291 291 290 290 290 289 288 288 287 287 288 287 287 287 287 288
292 292 292 292 292 292 292 292 292 292 292 292 292 291 292 292 293 293 293 293 293 293 294 294 294 294 294 294 294 295 295 295 295 295 295 294 294 294 294 293 293 293 293 292 292 291 291 290 290 289 289 288 288 287 287 287 287 287 287 287 287 287
291 291 291 292 292 292 292 292 292 292 292 291 291 291 291 291 292 293 293 293 292 292 293 293 294 294 294 294 294 294 294 294 294 294 294 294 294 294 293 293 293 293 292 292 292 291 291 290 290 289 289 288 287 287 287 286 286 286 286 286 287 287
290 290 291 291 291 291 291 292 291 291 291 291 291 290 290 291 291 292 292 292 292 292 292 292 292 293 293 294 294 294 294 294 294 294 294 293 293 293 293 293 293 292 292 292 291 291 291 290 290 289 288 288 287 286 286 286 286 286 286 286 286 286
289 289 290 290 291 291 291 291 291 291 291 291 290 290 290 290 291 291 292 292 292 292 292 292 292 291 292 292 293 293 294 294 294 293 293 293 293 293 293 293 293 292 292 292 291 290 290 290 289 289 288 288 287 286 286 285 285 286 285 285 286 286
289 289 289 290 290 290 291 291 291 291 290 290 290 290 290 290 290 291 291 292 292 292 292 292 291 291 291 291 291 292 292 293 293 293 293 292 292 292 292 292 292 292 291 291 291 290 289 289 289 289 288 288 287 286 286 285 285 285 285 286 286 286
289 289 289 289 290 290 290 290 290 290 290 290 290 290 289 289 290 290 290 291 291 292 292 292 291 291 291 291 291 291 291 291 292 292 292 292 292 291 291 291 291 291 291 291 290 290 290 289 289 288 288 288 287 286 285 285 285 285 285 285 286 286
289 289 289 289 290 290 290 290 290 290 290 290 290 289 289 289 289 289 290 290 290 291 291 291 291 291 291 291 291 291 291 290 291 291 291 291 291 291 291 291 290 290 290 290 290 290 290 290 289 288 288 287 287 287 286 285 285 285 285 285 285 285
289 289 289 289 290 290 290 290 290 290 289 289 289 289 289 289 289 289 289 289 289 290 290 290 290 290 290 290 291 291 291 290 290 290 291 291 291 291 290 290 290 290 290 290 290 290 289 289 289 288 288 287 286 286 286 285 284 284 284 284 284 285
289 289 289 289 290 290 290 290 290 289 289 289 289 289 288 289 289 289 288 288 289 289 289 289 289 289 290 291 291 291 291 291 290 290 290 290 290 290 290 290 289 289 289 289 289 289 289 288 288 288 287 287 286 286 285 285 284 284 284 284 284 284
289 289 289 289 290 290 290 289 289 289 288 288 288 288 288 288 288 288 288 288 288 289 288 288 288 288 289 290 290 290 290 290 290 290 290 290 290 290 290 290 289 289 289 289 289 288 288 288 288 288 287 287 286 286 285 285 284 284 284 284 283 283
289 289 289 289 289 289 289 289 289 288 288 288 288 287 287 287 288 288 287 287 287 288 288 287 287 287 287 289 290 290 290 290 290 290 290 290 290 290 290 289 289 289 288 288 288 288 288 288 288 288 287 287 287 286 286 285 284 284 283 283 283 283
289 288 288 289 289 289 289 288 288 288 287 287 287 286 286 287 287 287 287 287 287 287 287 287 286 286 286 287 288 289 289 289 289 290 290 290 289 289 289 289 289 289 288 288 288 288 287 287 287 287 287 287 287 286 286 285 285 284 283 283 283 282
288 288 288 288 289 289 288 288 288 287 287 287 286 285 285 286 286 286 286 286 286 287 287 286 286 285 285 286 287 288 289 289 289 289 289 289 289 289 289 289 289 288 288 288 288 287 287 287 287 287 287 287 286 286 286 285 285 284 283 283 282 282
288 287 287 288 288 288 288 287 287 287 286 286 285 284 284 285 285 285 285 285 286 287 286 286 285 284 284 285 286 287 289 289 289 289 289 289 289 289 288 288 288 288 288 288 287 287 287 287 287 287 287 286 286 286 286 285 285 284 283 283 282 282
287 287 287 287 287 288 287 286 286 286 285 285 284 283 283 284 284 283 283 284 285 286 286 285 284 283 283 284 285 286 287 288 289 289 288 288 288 288 288 288 288 288 287 287 287 287 287 287 287 287 286 286 286 286 286 285 285 284 284 283 283 282
286 287 286 286 287 287 286 285 285 285 284 284 283 282 282 282 282 282 282 283 284 284 284 283 283 282 283 284 284 285 286 287 288 288 288 287 287 287 287 287 287 287 287 287 287 287 287 287 287 286 286 286 286 286 286 286 285 284 284 283 282 282
286 286 286 286 286 286 285 285 284 284 283 282 282 281 281 281 281 281 281 282 283 283 282 281 281 281 282 283 284 284 284 285 286 287 287 286 286 286 286 286 287 286 286 287 286 286 286 286 286 286 286 286 286 286 286 286 285 284 283 283 282 282
286 286 285 285 285 285 284 284 284 283 282 282 281 280 280 280 280 280 280 281 281 281 280 279 279 279 281 283 284 283 283 284 284 286 286 286 285 285 286 286 286 286 286 286 286 286 286 286 286 286 286 286 286 286 287 286 285 284 283 282 282 281
285 285 284 284 284 283 283 283 283 282 281 281 280 279 279 279 279 279 279 280 279 279 278 277 277 279 281 283 283 283 282 282 283 284 285 285 285 285 285 285 285 285 285 285 285 285 285 285 285 285 285 285 286 287 287 286 285 284 283 282 281 281
284 284 283 283 282 282 282 281 281 281 280 279 279 279 278 278 278 278 278 278 278 277 276 276 276 278 281 282 282 281 281 281 281 282 283 284 284 284 285 285 284 284 285 285 285 285 285 285 285 285 285 285 286 287 287 287 285 283 282 281 280 280
283 283 282 282 282 281 281 280 280 279 278 278 278 278 278 277 278 277 277 277 276 275 275 274 275 277 279 280 280 279 280 280 280 281 281 283 284 284 284 284 284 283 284 284 284 284 284 284 284 284 284 285 286 287 287 286 285 283 282 281 279 279
282 282 281 281 281 280 279 279 278 278 277 277 277 277 277 277 276 276 276 275 274 274 273 273 273 275 277 278 277 277 278 278 279 280 280 281 282 283 283 283 283 283 283 283 283 283 284 284 284 284 284 284 286 287 287 287 285 283 282 280 279 278
281 281 280 280 280 279 278 277 277 276 276 276 276 276 276 276 275 275 274 273 273 272 272 272 272 274 275 275 275 275 276 277 278 279 279 280 281 282 282 282 282 282 282 282 282 282 283 283 283 283 283 284 285 286 287 287 285 283 282 280 279 278
280 280 279 279 279 278 277 276 276 275 275 275 275 275 275 274 274 273 272 272 271 271 271 271 271 272 273 273 273 273 274 275 276 278 279 279 280 281 281 281 281 281 281 281 281 281 282 282 282 282 282 283 284 286 287 287 285 283 282 280 279 278
279 278 278 278 277 277 276 275 274 274 274 274 274 274 273 273 272 272 271 271 270 270 270 270 271 271 271 271 271 271 272 273 275 277 278 279 279 280 280 280 281 280 280 280 280 280 280 281 281 281 282 282 283 284 286 287 285 284 282 281 280 279
277 277 276 276 276 276 275 274 273 273 273 273 273 272 272 271 270 270 269 269 269 269 269 269 269 269 269 269 269 270 271 273 274 276 278 279 279 279 279 280 280 280 279 280 280 279 279 280 280 280 281 281 282 283 285 286 285 284 283 281 280 279
276 275 275 274 274 274 273 273 272 272 272 272 272 271 270 269 269 268 268 268 268 268 268 268 268 268 268 268 268 269 270 272 274 275 277 278 279 279 279 279 280 280 279 279 279 279 279 278 278 279 279 280 281 282 284 286 285 283 283 282 280 279
274 273 273 273 273 272 272 272 271 271 271 270 270 269 268 267 267 267 266 266 266 266 266 266 266 266 267 267 267 268 270 271 273 275 276 277 278 279 279 279 279 279 279 279 279 279 279 278 278 278 278 279 280 281 283 285 285 283 283 282 280 279
272 272 271 271 271 271 270 270 270 269 269 268 268 267 266 265 265 265 265 265 265 265 265 265 265 265 266 266 267 268 269 270 272 274 276 277 278 278 279 279 280 280 280 280 279 279 279 278 277 277 277 278 279 280 282 284 285 283 282 281 280 279
271 270 270 269 269 269 268 268 268 267 267 266 265 265 264 264 264 264 264 264 264 264 264 264 264 265 265 266 267 268 269 270 271 273 275 276 277 278 279 279 279 280 280 280 280 280 279 278 278 278 278 278 279 279 281 283 284 283 282 281 279 278
269 268 268 267 267 266 266 266 265 265 264 264 263 263 263 263 263 263 263 263 263 263 263 263 264 264 265 265 266 267 268 269 270 272 274 276 276 277 278 279 279 280 280 280 280 280 280 280 280 279 279 278 279 279 281 283 284 283 282 280 279 279
267 266 265 265 264 264 264 263 263 263 263 262 262 262 262 262 262 262 262 262 262 263 263 263 263 263 264 264 265 266 266 267 269 270 272 274 275 276 278 279 280 280 280 281 281 280 280 280 280 280 279 279 279 280 281 282 284 283 282 281 280 279
264 264 263 263 263 262 262 262 262 262 262 262 262 261 261 262 262 262 262 262 262 262 262 263 263 263 263 264 264 265 266 267 268 270 272 274 275 276 277 278 279 280 281 281 281 281 280 280 280 280 280 279 280 280 281 282 284 283 282 281 280 278
263 262 262 262 261 261 261 261 261 261 261 261 261 261 261 261 261 262 262 262 262 262 262 262 263 263 263 263 264 264 265 267 269 271 272 273 274 275 276 277 278 280 281 281 282 282 282 281 280 280 280 280 280 280 281 282 283 284 283 281 280 278
261 261 261 261 261 261 261 261 261 261 261 261 261 261 261 261 261 261 261 262 262 262 262 262 263 263 263 264 264 265 266 267 268 269 270 271 272 273 275 276 277 278 280 281 282 282 282 282 281 280 280 280 280 281 281 282 283 284 283 282 280 279
261 261 261 261 261 261 261 261 261 261 261 261 261 261 261 261 261 261 261 261 262 262 262 262 263 263 263 264 264 265 265 265 266 267 267 268 269 271 273 275 276 277 278 280 281 282 282 283 282 281 281 280 280 281 281 282 283 283 283 282 280 278
260 261 261 261 261 261 261 261 261 261 260 260 260 260 261 261 261 261 261 261 261 262 262 262 263 263 263 263 264 264 264 264 265 266 267 267 268 270 272 275 277 277 278 278 280 281 282 282 283 282 281 281 281 281 281 282 282 283 283 281 279 278
Wind_Speed
19 23 26 30 32 34 35 36 37 38 38 37 36 35 34 34 31 26 23 20 20 21 23 25 27 28 30 30 30 29 30 31 32 34 35 35 36 37 38 38 40 41 43 45 46 46 46 47 47 47 48 48 48 48 48 48 48 48 48 46 45 44
21 25 26 28 29 31 33 35 37 38 39 39 39 37 37 37 36 34 30 26 21 21 23 25 27 28 30 30 30 31 32 33 33 35 36 36 37 37 38 39 40 41 43 44 46 46 46 47 47 47 47 48 49 49 49 48 48 48 48 47 45 44
22 25 26 26 27 29 31 32 33 35 36 37 38 39 40 40 38 37 36 32 27 24 23 24 26 28 30 31 31 32 33 33 33 35 36 37 38 38 38 39 40 41 42 44 45 47 47 48 48 48 48 48 49 49 48 48 49 48 48 48 46 45
17 20 23 26 28 30 32 32 32 34 35 35 35 37 38 39 39 38 37 35 32 30 27 25 25 26 28 30 31 32 33 33 34 34 35 37 38 38 39 40 40 40 41 43 45 47 48 48 49 49 49 50 50 49 48 48 49 49 48 48 48 48
16 18 20 22 23 25 27 29 30 32 33 35 36 37 39 39 39 39 38 37 35 34 31 29 27 25 26 28 30 32 33 34 35 35 35 36 37 38 39 40 41 41 42 43 44 45 46 48 49 49 50 51 52 51 50 49 51 51 51 50 51 50
18 19 21 22 22 23 24 25 27 29 31 34 35 36 39 40 41 42 41 40 39 38 36 34 32 29 27 27 28 30 31 33 34 35 36 36 36 37 38 39 40 41 42 43 44 44 45 46 48 49 51 52 51 51 51 51 52 52 52 54 54 52
16 18 21 23 24 26 27 27 27 28 30 32 33 35 37 39 40 41 41 40 40 40 39 39 37 34 31 29 29 28 29 30 32 33 35 36 36 37 38 39 39 40 42 44 45 45 46 47 48 49 51 52 52 51 51 51 52 53 53 53 55 55
12 16 19 21 22 25 26 27 28 29 30 31 31 33 35 37 38 38 38 38 38 38 39 40 40 38 36 33 31 29 28 28 28 30 32 34 35 37 38 39 40 41 43 44 44 45 47 48 48 48 50 51 52 52 51 50 51 54 53 53 54 56
11 15 19 21 22 24 24 25 26 27 30 30 31 33 34 35 36 36 36 35 35 34 36 38 39 39 38 36 34 31 29 28 27 27 29 31 33 36 37 38 39 41 42 43 44 44 45 45 47 49 49 49 50 50 50 50 51 53 53 52 54 55
9 12 17 21 23 25 26 26 26 26 27 28 29 31 33 34 34 34 34 34 33 33 34 36 37 38 39 39 36 33 30 29 28 28 28 29 31 34 35 37 38 39 41 42 43 43 43 43 46 48 49 50 49 48 47 47 49 53 53 52 52 53
8 10 14 18 20 23 25 27 28 29 29 28 28 29 30 31 31 31 32 32 31 31 33 35 35 37 39 39 38 36 33 30 29 28 28 28 30 32 34 35 36 37 39 40 41 41 42 43 46 48 49 49 49 48 48 47 47 50 51 51 50 51
7 9 13 15 17 20 22 23 26 28 29 30 30 31 31 31 30 30 30 31 30 30 31 33 35 37 38 38 37 37 35 33 30 28 27 28 29 31 33 33 35 37 38 39 39 40 41 43 46 47 48 50 50 49 48 47 46 46 45 46 48 49
7 9 12 14 16 18 19 21 23 24 26 28 30 32 33 31 29 29 30 31 31 31 31 32 34 36 38 38 37 37 37 35 32 28 27 26 27 30 31 33 35 37 37 38 38 40 42 44 46 46 47 50 51 50 48 47 47 46 44 43 44 47
7 8 11 15 17 18 19 21 22 22 23 26 29 32 32 30 29 29 29 30 31 31 31 32 33 35 36 38 38 38 38 36 34 31 29 27 26 28 29 32 34 36 36 37 38 40 42 44 45 46 46 49 51 51 49 46 44 45 45 44 42 42
8 11 14 17 18 20 22 23 22 20 21 24 28 31 31 30 29 29 30 30 30 30 31 32 33 34 35 36 37 38 38 38 37 35 32 30 28 27 28 30 32 34 35 36 38 40 42 43 44 45 46 48 49 51 49 46 44 43 45 46 44 42
11 14 16 18 20 21 23 24 23 22 22 23 26 28 28 28 29 29 30 30 29 29 30 31 32 34 35 35 36 37 37 37 37 35 34 32 30 28 28 29 31 33 34 35 37 39 40 42 44 44 45 47 48 50 50 48 45 44 44 46 47 46
12 15 17 19 21 22 23 24 23 23 24 25 26 27 27 27 28 27 27 27 28 29 29 30 32 34 35 35 34 34 35 36 36 36 34 32 30 29 29 29 30 31 33 35 36 37 39 41 41 41 43 45 47 48 48 47 46 44 43 44 46 48
14 16 19 20 22 23 24 24 23 23 26 27 28 28 28 28 28 27 26 26 27 29 30 31 33 35 35 34 33 33 33 34 35 36 35 32 30 30 29 29 30 30 32 33 35 36 38 39 39 40 42 44 45 45 45 45 46 44 42 42 43 45
16 18 20 21 23 24 24 24 23 23 26 29 29 29 30 29 27 27 27 27 28 29 31 32 34 35 35 33 33 33 33 33 34 36 35 32 30 30 29 29 30 30 31 32 33 35 37 37 37 38 41 42 43 42 42 42 42 42 40 40 41 44
18 19 21 22 24 25 23 22 23 23 25 27 28 29 30 30 28 27 27 29 30 32 33 34 34 34 33 32 32 33 34 34 34 35 34 32 30 30 30 29 30 30 30 30 32 34 36 37 36 36 38 40 41 41 41 40 39 39 38 37 38 41
21 22 23 22 24 26 24 23 23 23 23 25 26 27 29 29 28 28 29 31 32 33 34 35 34 32 31 32 33 33 35 35 35 36 35 33 31 31 30 29 29 30 30 30 32 33 34 36 35 34 35 36 37 40 41 39 37 36 36 34 34 36
21 22 24 25 26 28 26 24 24 24 24 25 25 26 28 28 29 29 30 32 33 34 36 36 34 32 32 32 34 34 34 35 35 36 36 35 33 32 30 29 29 30 31 30 30 31 32 33 33 33 33 33 35 39 40 38 37 35 33 31 31 33
22 23 26 29 29 29 27 24 24 26 26 26 26 28 28 28 29 30 31 33 35 37 38 38 36 34 33 34 34 34 35 35 35 35 36 36 35 32 30 29 29 29 31 31 30 30 31 32 32 32 32 32 34 37 40 39 38 36 32 29 29 33
22 24 28 32 31 29 27 24 25 28 28 27 30 31 29 28 30 31 32 35 37 37 38 39 38 36 35 36 35 34 36 38 36 35 35 34 34 33 32 30 28 27 29 30 30 31 31 31 32 32 32 33 34 36 40 41 39 36 33 31 30 33
22 25 29 32 32 31 28 25 26 29 28 30 34 33 29 29 31 32 35 37 38 38 39 38 38 36 35 37 36 34 37 39 37 36 34 32 31 30 30 29 27 25 26 27 29 31 31 31 31 31 32 34 34 36 39 41 40 37 36 35 33 34
21 25 29 32 33 32 30 26 25 28 30 34 36 34 31 31 32 33 35 37 38 40 40 37 37 37 37 38 37 35 36 38 36 35 33 31 29 27 26 26 25 22 22 24 26 28 30 30 31 31 32 34 35 36 37 38 39 39 39 36 33 33
22 25 29 33 35 35 32 28 25 27 32 36 35 33 33 34 34 34 36 37 38 40 39 39 39 39 39 39 37 34 34 35 34 32 32 29 27 25 24 24 23 22 22 22 22 24 26 28 29 30 31 33 35 36 37 37 36 39 41 39 34 32
23 24 27 33 38 37 34 31 28 29 34 36 34 33 34 34 34 36 37 38 38 38 38 39 41 40 39 38 35 34 33 33 31 31 30 28 27 26 25 23 22 21 21 22 22 23 24 24 27 29 31 32 33 33 36 37 34 36 40 41 37 33
23 24 26 32 38 39 36 35 34 33 34 34 33 33 34 34 34 36 37 38 39 38 37 37 38 38 38 37 34 32 32 32 31 30 29 28 26 24 24 23 22 20 20 21 22 23 23 22 24 27 28 30 31 31 33 35 34 34 35 36 35 32
23 25 27 32 38 40 39 39 39 37 34 33 33 33 35 37 36 36 38 39 38 37 36 35 34 35 35 35 33 32 32 31 30 29 30 30 28 25 24 23 22 22 22 22 21 21 20 21 24 26 28 30 32 32 32 32 33 35 34 33 33 30
25 27 29 33 37 40 41 42 42 39 35 34 34 34 36 39 39 38 38 38 36 34 33 32 32 32 32 32 32 32 32 32 30 30 31 32 31 30 28 27 26 27 26 25 24 22 19 20 25 29 31 32 34 34 33 32 33 35 33 31 32 30
27 29 31 35 37 39 41 43 44 42 38 37 37 37 38 39 39 38 37 34 32 31 30 28 28 29 29 28 28 29 32 34 33 33 34 35 35 34 33 33 34 34 31 28 29 30 28 27 29 29 28 30 32 35 35 34 33 35 35 34 35 34
31 31 32 35 38 40 42 45 45 44 42 40 39 38 39 38 36 35 34 31 29 30 30 28 27 27 27 27 27 27 29 32 33 33 34 36 37 36 35 36 38 38 36 33 32 33 33 32 30 27 25 27 29 33 35 34 32 34 36 37 37 35
32 32 33 37 41 43 44 45 46 45 42 41 40 39 39 38 35 33 33 32 31 31 30 29 29 29 28 27 26 26 27 28 29 28 28 29 31 32 33 35 36 37 38 37 36 34 32 30 28 25 24 25 28 31 34 35 35 34 35 38 37 32
32 34 37 39 42 44 43 43 44 44 43 41 40 38 38 38 37 36 35 34 33 32 30 29 29 29 27 26 25 26 27 26 23 21 21 23 24 27 29 31 33 35 35 35 35 35 33 30 28 26 25 25 28 31 32 35 36 35 36 39 36 29
34 36 37 39 41 42 42 41 42 43 43 42 40 39 39 39 39 38 37 35 34 32 30 29 29 28 27 27 27 26 24 23 21 21 22 21 20 19 22 25 28 30 32 32 33 34 33 31 28 26 26 26 28 30 31 33 36 36 38 41 37 30
35 35 36 38 39 39 39 40 42 42 42 41 40 39 39 38 38 38 37 36 36 34 32 31 31 30 29 29 29 27 26 25 25 25 25 24 21 20 21 23 23 24 27 29 30 31 32 32 29 27 26 27 28 28 30 31 31 31 34 37 34 30
34 34 34 34 35 35 36 38 40 40 40 39 39 38 38 37 36 36 35 34 34 33 32 32 32 31 30 30 30 31 31 30 28 26 25 26 26 25 24 23 21 20 22 25 28 29 30 30 30 28 26 26 28 28 29 29 27 25 27 28 28 28
Wind_Direction
12 13 13 13 14 14 14 13 13 14 16 16 17 16 15 14 11 2 349 330 307 293 282 274 267 262 257 252 249 246 243 242 240 238 237 236 235 232 230 227 225 223 220 218 218 218 217 217 217 216 216 215 215 215 214 214 212 211 210 209 209 209
10 14 14 12 14 14 13 12 11 12 12 11 11 11 11 12 12 9 3 353 335 314 299 288 279 272 266 260 254 250 247 244 242 240 238 237 236 234 232 230 228 225 222 220 218 218 217 217 216 216 215 215 215 214 213 212 211 211 210 209 208 208
6 9 11 11 13 14 14 13 11 10 10 9 8 7 7 7 7 6 4 0 353 337 320 305 293 282 274 268 262 257 253 250 246 243 241 239 237 235 233 232 230 228 225 222 220 219 218 217 216 215 215 214 214 214 213 212 210 209 209 208 207 207
3 6 9 11 12 12 11 10 9 8 8 7 7 6 6 5 3 3 2 1 358 351 339 325 309 294 282 274 268 263 260 257 253 249 245 241 238 236 234 232 230 229 227 225 223 220 219 218 217 216 215 214 214 212 211 211 209 207 207 207 206 206
1 5 9 12 14 12 10 8 8 6 5 5 5 5 4 3 2 1 1 360 359 356 352 342 329 313 296 282 273 267 263 260 257 254 250 246 242 239 236 233 230 229 227 225 224 222 220 219 217 216 216 215 214 212 211 210 209 207 205 205 206 205
3 5 6 6 7 8 8 7 6 5 4 4 4 3 2 1 1 1 0 359 357 357 356 352 345 334 316 298 285 275 269 263 259 254 251 248 245 242 239 236 232 229 227 225 223 222 220 220 218 217 216 216 215 214 213 212 210 208 207 207 206 205
2 1 1 0 360 0 1 2 3 3 3 2 2 1 360 360 360 359 359 357 356 356 356 354 352 346 335 320 305 292 281 271 262 256 251 247 245 242 240 238 233 229 227 225 223 222 221 221 220 218 217 217 216 215 215 214 212 210 209 209 208 207
357 356 357 356 356 357 357 357 358 358 359 359 360 359 358 358 357 357 356 355 354 353 353 353 352 349 345 336 324 311 298 285 272 262 254 249 246 243 240 237 234 231 229 227 225 224 223 222 221 220 220 219 217 215 215 215 215 213 211 210 209 209
352 351 352 351 352 353 354 354 355 355 355 355 355 356 356 355 354 354 353 352 351 350 350 350 349 348 347 344 338 328 315 302 288 275 264 256 250 245 240 237 235 233 231 230 228 226 225 222 221 221 221 220 218 216 215 215 214 214 213 212 211 210
347 347 347 347 348 348 349 350 351 352 352 351 351 352 352 352 351 351 350 348 348 347 346 346 346 346 346 346 345 341 331 319 306 292 280 268 256 249 245 241 238 236 234 232 231 229 227 224 223 222 221 220 218 217 217 216 215 214 213 213 212 211
342 342 341 342 344 345 346 346 346 347 347 347 348 348 348 348 347 347 346 344 343 342 341 342 343 344 345 346 345 344 340 333 322 309 295 281 269 260 253 247 243 239 237 235 232 230 228 226 225 224 222 219 217 216 217 218 218 217 215 213 212 212
332 332 334 337 340 341 342 342 342 342 342 342 343 343 344 344 343 342 341 340 338 337 338 339 340 341 342 343 343 341 339 336 331 321 307 293 281 270 262 254 248 243 239 237 234 231 229 228 228 227 224 222 219 217 216 216 218 219 218 216 213 211
323 329 331 332 333 335 336 336 337 337 337 338 338 338 339 340 340 338 336 334 334 333 334 336 338 339 339 339 339 338 336 334 332 328 318 305 291 279 268 258 252 247 242 239 236 233 231 230 230 229 227 225 222 219 217 216 217 217 219 220 216 212
322 326 325 326 327 328 330 330 330 332 334 334 333 333 334 335 335 334 331 331 331 331 332 334 335 336 336 336 336 335 335 333 332 330 326 317 304 290 275 263 255 250 245 241 238 236 234 234 233 230 228 226 224 221 219 218 217 216 216 218 219 216
315 317 318 320 320 320 323 325 325 325 328 328 327 329 330 331 331 330 329 329 329 329 330 331 332 332 331 331 331 332 333 333 332 331 328 322 313 300 283 270 261 254 248 243 240 239 238 237 235 232 229 227 224 222 221 219 219 218 217 216 217 217
304 309 311 313 313 314 317 319 319 319 321 322 323 325 326 326 326 326 327 327 327 327 328 329 329 328 326 327 328 329 329 330 330 329 327 322 315 303 289 277 267 259 252 247 243 242 241 239 237 233 230 228 224 222 221 220 220 220 219 217 215 215
297 303 306 307 308 309 311 313 315 316 317 319 321 322 323 322 321 321 323 323 323 324 326 327 326 324 323 323 324 325 326 326 325 325 324 320 313 304 292 282 272 264 257 251 247 245 244 242 239 235 231 228 225 222 221 220 221 221 221 219 217 215
290 297 301 303 304 305 306 309 312 314 315 317 319 320 320 319 318 318 320 320 321 322 324 325 325 323 321 321 322 322 322 322 321 321 320 316 311 303 293 283 274 266 261 256 250 247 246 245 241 236 233 229 225 222 219 219 221 221 221 220 217 216
293 298 300 301 301 301 303 306 309 312 313 314 316 317 317 316 314 316 318 319 319 320 321 323 323 321 319 319 319 319 318 317 316 316 315 312 307 302 293 285 278 270 264 259 253 249 248 247 244 239 235 230 224 219 218 218 219 221 221 220 217 215
300 302 301 301 299 299 303 306 307 309 309 309 311 313 312 310 311 314 317 317 317 318 319 320 320 318 315 314 315 315 314 313 312 311 311 306 301 298 294 288 282 274 267 260 256 252 250 249 246 241 236 230 222 218 218 218 218 219 220 219 217 215
305 304 302 299 297 299 305 307 307 307 304 304 307 307 304 303 307 311 313 313 313 314 315 316 317 314 310 309 310 310 310 309 308 308 307 303 298 295 293 289 283 276 270 263 258 254 251 250 248 243 237 229 220 218 219 218 217 217 217 216 213 211
303 302 301 298 296 300 305 307 308 306 303 303 304 299 296 299 304 307 309 309 310 311 312 313 313 310 306 305 306 307 306 305 305 305 304 302 297 293 290 286 281 275 271 267 261 256 252 250 248 244 238 228 219 218 219 218 217 215 213 211 207 203
300 298 296 295 296 299 302 307 308 304 302 304 299 293 295 301 304 305 306 306 307 308 308 309 309 306 303 301 303 304 303 302 302 302 301 299 296 292 287 283 278 273 270 267 262 257 253 250 247 244 238 230 222 220 219 218 218 215 210 206 203 200
298 296 294 295 297 299 302 307 305 301 301 299 292 292 300 304 303 305 305 304 304 304 304 305 305 303 301 300 302 303 301 300 299 298 296 294 291 288 283 280 276 271 270 267 262 257 253 250 247 243 238 232 225 222 222 220 218 214 208 203 201 202
295 293 293 296 297 298 300 303 300 299 298 292 290 296 303 303 303 304 303 301 301 301 301 301 301 299 298 298 300 301 299 297 296 295 293 290 286 282 278 276 272 268 266 265 262 257 252 249 245 241 238 234 228 225 226 224 219 213 209 205 204 203
293 292 293 294 295 296 297 298 296 295 291 289 294 301 303 302 303 302 299 298 298 298 298 298 297 295 294 295 297 297 294 293 293 291 289 286 281 275 272 269 266 262 259 260 260 256 251 247 243 239 237 235 231 227 226 224 218 213 211 209 207 206
294 293 292 293 294 294 295 296 294 289 287 290 297 302 302 303 303 299 296 295 294 294 295 295 294 292 291 292 293 292 289 288 289 287 285 282 277 269 265 263 260 256 252 253 255 254 250 245 240 237 235 234 232 229 228 225 215 209 211 211 207 208
298 294 293 293 294 294 296 297 294 288 288 293 299 301 302 302 301 297 295 293 292 292 292 292 292 291 290 289 288 285 283 282 282 281 279 278 272 265 262 260 256 253 250 250 251 251 250 243 236 234 233 231 230 228 229 228 216 205 208 211 208 207
299 296 296 295 295 297 299 299 296 293 294 298 302 303 303 302 298 295 293 291 290 290 289 288 288 288 289 288 285 283 280 278 276 274 272 271 267 263 260 257 254 251 248 248 248 247 245 239 232 229 229 227 226 224 226 228 217 202 202 206 204 201
298 298 296 294 296 300 302 301 299 300 302 303 305 306 304 299 295 292 290 289 288 288 287 286 285 285 286 286 284 281 278 275 273 270 267 264 262 260 259 257 254 250 247 247 247 244 241 236 229 226 223 222 222 220 220 220 211 199 197 197 194 191
300 300 297 296 299 302 303 302 301 303 306 306 306 306 301 297 294 291 289 288 288 287 286 285 283 284 284 284 282 280 277 274 272 270 269 266 262 258 258 257 256 253 250 249 247 242 237 232 232 231 227 224 222 219 216 215 206 197 194 191 185 181
304 303 301 301 303 304 303 303 303 305 306 306 305 302 297 294 293 291 288 288 287 287 287 286 285 285 285 284 283 284 282 279 274 269 268 268 267 263 259 258 256 255 253 251 248 245 243 242 243 241 233 225 223 220 218 216 208 198 191 186 182 178
309 308 306 305 306 306 304 303 302 304 305 303 302 298 293 291 290 288 287 287 286 286 287 287 286 287 286 283 282 283 285 285 281 274 268 265 266 266 263 260 258 256 254 251 250 249 248 247 247 246 235 224 221 221 220 218 211 199 190 183 178 176
310 309 307 306 305 303 301 300 301 302 303 301 299 296 291 288 285 283 285 287 286 286 286 285 286 287 285 282 281 282 281 282 282 281 275 268 265 265 264 263 260 257 254 251 250 249 248 244 241 238 230 221 217 219 220 219 214 202 190 182 178 177
306 305 303 302 300 299 299 299 300 302 302 300 297 294 290 286 283 281 282 284 285 285 284 283 283 284 282 280 280 279 277 275 277 283 287 283 276 271 267 264 261 258 255 252 250 249 246 243 236 229 224 218 214 214 217 219 218 207 191 182 181 182
301 300 299 298 299 299 299 298 299 302 302 300 298 295 291 287 285 282 280 281 282 282 281 281 281 281 281 280 278 275 276 279 284 291 296 296 293 285 275 268 264 260 257 254 252 249 246 242 235 226 222 219 214 211 212 217 220 213 196 186 186 188
298 298 298 300 300 300 299 299 301 304 304 303 302 299 295 292 289 286 283 282 282 281 279 279 278 278 278 279 278 279 282 285 286 286 286 285 284 282 278 271 263 258 257 257 255 251 246 241 235 227 221 219 215 211 209 213 219 214 200 191 189 188
298 298 300 302 303 303 302 303 306 308 308 307 305 303 299 296 293 290 287 284 282 280 278 276 276 275 276 275 274 274 275 274 272 271 269 268 267 268 270 269 262 256 255 255 254 251 246 240 233 226 220 217 215 209 205 208 214 211 201 194 190 186